Wetbulb
56.50 55.34 54.03 53.10 52.04 51.65 51.46 51.38 51.51 51.41 52.01 52.01 52.11 53.07 53.67 54.02 53.70 53.92 50.34 53.54 56.29 58.99 57.43 53.37 51.46 51.65 51.44 49.53 51.21 52.50 46.42 45.21 46.76 47.44 49.41 52.84 51.05 54.03 54.31 51.87 53.63 55.21 56.16 58.13 58.85
56.85 55.70 54.37 53.05 52.40 51.92 51.30 51.21 51.13 51.22 51.66 51.80 52.17 52.99 53.61 53.57 53.55 48.86 53.72 58.10 58.83 58.94 52.32 49.58 48.28 49.78 48.61 47.92 48.85 47.38 45.30 45.42 48.62 48.16 48.57 49.96 49.92 49.62 48.83 48.48 48.85 50.62 53.62 55.04 58.82
57.00 55.87 54.33 53.07 52.36 51.94 51.32 50.93 50.82 51.00 51.31 51.42 52.07 53.16 53.94 53.53 50.47 49.01 55.87 57.42 58.29 55.66 52.08 50.85 50.01 48.74 46.71 48.63 47.82 46.77 44.02 47.33 47.05 48.23 48.37 47.73 46.82 48.66 46.81 45.55 48.48 48.32 49.97 51.72 52.71
57.27 55.81 54.03 53.02 52.53 51.98 51.17 50.72 50.84 51.02 51.15 51.13 52.28 53.28 53.79 53.45 42.38 51.61 54.37 55.58 57.33 54.95 51.35 49.48 48.49 46.61 45.73 44.99 48.34 44.15 46.62 46.46 47.11 47.41 46.59 45.30 46.77 45.16 46.18 46.73 49.35 49.61 50.35 50.44 50.35
56.57 55.63 54.18 53.27 52.87 51.94 50.97 50.61 50.67 50.84 50.76 51.02 52.42 53.01 53.33 46.88 46.21 51.98 53.59 55.14 52.82 51.43 49.39 47.83 46.44 46.18 43.96 45.09 45.54 44.36 45.30 46.04 46.40 45.98 45.83 46.37 44.71 44.99 45.69 48.48 49.69 49.53 49.55 49.69 50.39
55.91 54.72 54.16 53.50 52.66 51.84 50.92 50.62 50.36 50.38 50.07 51.26 52.47 52.42 51.33 42.52 49.96 52.02 52.05 51.21 51.11 50.52 49.23 49.42 47.24 47.64 45.00 44.40 43.70 45.89 45.44 45.03 45.95 45.90 46.33 44.56 44.76 45.48 46.56 49.10 48.32 48.54 48.83 49.81 50.28
55.64 54.41 53.79 53.57 52.76 51.53 50.61 50.33 50.15 50.06 50.00 51.46 52.52 52.66 48.23 45.39 51.16 53.26 52.08 51.12 51.34 50.29 48.25 49.64 49.70 47.42 47.61 45.03 47.74 45.56 42.43 44.85 45.73 45.20 43.93 45.33 41.93 44.03 47.40 47.63 47.38 47.97 49.11 49.90 50.70
55.74 54.15 53.27 53.08 52.53 51.47 50.47 49.94 49.78 49.70 50.74 51.48 52.10 52.01 46.21 50.67 53.11 51.42 52.67 51.05 51.37 51.56 50.20 50.63 50.69 48.13 46.20 47.86 45.21 42.91 44.18 40.42 43.95 43.77 45.10 43.49 39.53 45.51 48.38 47.91 47.26 48.12 49.40 50.08 50.89
55.53 53.99 52.96 52.36 51.92 51.08 49.76 48.94 50.13 52.44 52.75 52.01 51.06 49.49 44.76 50.25 48.56 50.94 51.96 48.27 49.33 50.59 51.36 50.05 49.55 47.26 46.70 43.21 41.74 43.35 38.89 40.47 41.52 44.71 43.19 43.08 40.87 45.65 48.49 48.15 47.79 48.78 49.50 49.75 50.67
55.09 53.91 52.83 51.87 51.34 50.29 49.17 49.72 51.35 51.27 52.09 52.64 50.70 45.15 46.54 44.18 48.23 48.81 51.05 49.54 47.96 48.18 47.92 47.66 47.02 44.10 44.76 42.67 37.30 38.49 38.98 39.96 39.47 43.44 43.74 42.70 42.77 46.11 47.84 48.05 48.22 48.60 49.89 50.77 51.42
54.93 53.85 52.54 51.40 50.06 49.95 47.79 50.26 44.67 44.89 48.55 45.34 45.37 43.62 45.42 48.28 49.42 47.73 49.67 48.24 48.31 46.69 42.76 46.69 41.72 40.74 42.97 42.83 41.31 39.75 38.66 38.27 41.39 44.24 42.21 42.35 42.65 44.94 47.52 47.93 49.19 49.37 49.65 49.61 49.64
54.56 53.48 52.07 50.44 49.78 49.89 48.31 46.58 44.63 47.33 43.41 47.10 45.13 45.65 47.13 48.22 43.55 46.35 49.11 44.92 44.70 41.66 44.08 42.45 40.65 43.43 42.59 41.61 40.03 39.96 38.57 38.90 41.89 42.75 42.47 41.95 42.18 45.93 47.41 47.51 47.05 46.51 46.12 45.73 46.24
54.13 53.06 51.78 50.45 49.76 47.41 47.39 46.32 48.45 48.82 39.86 43.20 44.89 44.40 45.13 46.84 43.62 44.73 47.21 45.64 42.89 41.40 42.21 40.20 42.16 42.68 40.75 40.33 39.15 40.28 38.79 38.73 38.17 41.22 43.29 42.90 41.11 43.14 47.74 46.75 45.86 45.91 45.52 45.43 43.55
53.83 52.32 50.43 49.46 43.10 44.12 42.73 48.85 48.75 50.19 35.61 38.93 39.92 43.47 45.45 46.01 41.84 47.76 48.01 45.78 42.93 40.42 41.06 40.74 43.28 39.82 39.64 39.08 40.43 36.60 41.61 40.28 39.16 38.46 34.94 43.04 33.08 40.80 44.02 42.80 42.36 43.17 42.75 43.14 42.18
53.21 51.17 48.96 46.84 45.09 41.63 44.83 49.47 48.72 46.63 25.60 41.82 40.66 48.78 46.15 42.25 43.80 43.78 48.65 45.54 41.31 41.54 40.65 40.17 39.39 38.59 37.36 39.24 40.56 37.97 42.15 40.81 40.70 39.42 39.33 39.07 36.11 40.21 41.37 37.94 39.29 39.37 38.32 39.30 39.82
52.56 50.28 47.63 46.01 46.71 46.34 48.08 47.91 46.45 31.68 24.34 37.56 41.77 40.24 40.23 42.04 42.54 44.90 44.69 46.67 45.87 41.09 41.85 41.11 43.22 41.41 41.44 42.10 42.67 43.57 41.50 42.14 42.52 39.83 32.75 38.24 36.65 36.28 35.01 35.95 37.36 37.35 36.82 36.60 37.84
50.94 49.17 47.75 48.43 43.81 48.41 47.52 43.81 28.59 26.05 42.49 35.97 36.96 39.83 39.39 38.29 39.70 41.19 40.40 40.09 38.83 34.86 35.69 38.87 39.32 42.64 43.03 40.04 43.63 42.42 40.10 33.90 31.88 32.44 32.05 39.26 36.70 32.27 37.47 39.21 37.47 34.93 35.07 35.73 36.22
49.42 47.43 46.80 49.96 47.86 49.33 44.62 35.34 23.73 34.06 38.27 40.00 39.59 39.26 36.82 39.17 39.20 39.75 38.95 37.63 39.90 38.66 37.17 34.39 31.96 39.66 42.83 39.55 39.13 39.66 38.97 32.93 24.90 28.50 31.76 38.95 33.57 32.53 39.73 40.85 39.84 38.24 37.15 35.32 35.21
47.83 43.62 45.20 47.44 48.64 47.34 37.45 28.23 30.78 36.28 39.48 37.81 38.51 35.79 36.04 38.23 38.11 38.26 38.23 38.14 39.61 38.89 34.13 33.46 33.34 40.18 39.82 42.08 43.05 38.91 36.78 40.95 33.88 36.17 32.39 35.77 38.19 40.32 38.69 37.98 37.66 35.90 35.58 33.73 33.89
42.20 41.36 41.92 47.51 48.51 42.67 34.57 31.33 34.90 39.72 40.08 39.63 34.80 37.71 33.48 35.46 34.99 35.80 36.34 40.05 38.16 39.10 39.87 36.79 31.97 37.59 39.14 42.72 44.15 41.28 42.80 34.86 36.34 25.99 25.26 32.97 30.49 28.94 30.89 32.73 34.31 32.99 32.87 33.04 33.40
40.79 35.79 43.12 47.57 46.50 38.23 32.59 35.50 38.97 40.79 41.85 39.04 37.58 36.07 36.97 35.22 35.70 33.91 35.50 38.64 40.41 38.21 39.92 39.09 36.14 35.59 38.30 37.64 37.46 39.49 37.55 36.63 36.72 34.60 28.38 27.44 27.01 32.71 31.44 32.40 32.16 32.41 32.73 33.08 31.83
40.00 31.20 44.07 45.64 35.04 35.35 35.67 39.67 40.51 39.91 42.57 40.40 40.50 39.19 38.01 37.33 35.45 34.45 34.95 38.12 41.42 39.65 35.92 39.96 37.61 32.94 34.99 40.29 42.02 40.20 36.65 35.47 29.37 30.72 33.48 33.14 26.17 35.41 34.51 34.32 33.47 32.47 33.02 32.91 32.73
34.39 36.00 44.07 44.60 32.84 34.33 38.37 38.34 39.07 39.31 39.08 39.10 38.65 40.28 41.18 37.42 33.17 36.15 37.53 41.30 40.81 38.47 37.61 40.03 35.88 30.99 32.66 37.32 40.43 36.69 36.86 36.90 36.02 34.26 31.41 29.08 27.17 36.17 34.98 33.57 34.45 32.95 33.02 33.23 32.57
37.52 30.80 36.82 39.11 40.48 35.14 34.54 36.08 35.26 40.05 38.30 39.63 39.32 40.84 39.18 36.91 38.08 35.42 36.45 37.97 39.57 38.93 38.33 39.34 37.29 32.50 29.72 30.83 35.31 32.42 35.06 36.07 34.14 29.87 31.76 28.66 29.70 31.99 32.19 31.65 33.05 32.81 32.70 32.45 32.13
40.45 35.13 37.78 30.92 36.86 37.12 37.44 36.43 35.49 34.67 39.55 40.43 37.73 38.55 37.30 33.62 34.90 34.13 35.87 36.27 38.03 39.04 39.13 39.85 33.73 35.51 35.65 36.13 36.19 33.41 33.47 32.97 31.05 32.18 29.50 28.74 28.78 31.07 32.09 32.43 33.46 34.55 34.15 32.15 31.19
36.15 36.88 39.70 37.56 38.37 36.66 36.55 35.26 34.66 35.53 36.29 34.72 34.72 36.70 37.67 34.43 34.83 32.11 35.30 36.20 36.02 38.97 39.17 40.36 34.52 35.38 33.12 36.47 35.34 31.95 33.96 34.31 32.54 32.20 31.12 31.18 30.21 34.77 35.53 35.43 33.96 33.20 33.09 31.40 30.63
43.21 43.88 40.36 36.61 35.26 34.42 34.87 35.50 35.45 37.34 36.70 39.07 38.46 37.48 35.22 36.93 39.43 41.36 41.69 41.81 41.07 38.52 37.91 38.12 36.06 33.99 30.53 36.14 33.31 28.48 30.94 31.27 31.10 32.30 32.16 27.99 30.71 34.67 33.68 33.15 32.53 32.39 32.34 31.12 30.34
MSLP
1020.30 1020.44 1020.56 1020.54 1020.41 1020.49 1020.42 1020.36 1020.38 1020.03 1019.97 1019.56 1019.25 1018.83 1018.27 1017.69 1016.83 1015.97 1014.64 1016.41 1016.04 1015.65 1015.20 1013.09 1012.24 1011.44 1010.96 1010.18 1009.94 1009.36 1008.09 1005.83 1004.60 1004.01 1003.48 1004.16 1004.96 1005.42 1005.70 1005.69 1005.70 1005.52 1005.46 1005.36 1005.42
1019.96 1020.10 1020.41 1020.45 1020.55 1020.44 1020.34 1020.33 1020.29 1019.87 1019.82 1019.57 1019.24 1018.72 1018.30 1017.61 1016.41 1014.89 1016.38 1016.40 1016.12 1015.75 1013.94 1012.78 1011.70 1011.27 1010.17 1009.78 1009.36 1008.96 1007.38 1005.82 1005.30 1005.81 1005.92 1006.07 1006.22 1006.12 1006.10 1005.80 1005.54 1005.46 1005.60 1005.81 1005.83
1019.78 1020.01 1020.15 1020.36 1020.42 1020.39 1020.31 1020.40 1020.18 1019.94 1019.67 1019.58 1019.13 1018.65 1018.18 1017.50 1015.86 1014.50 1016.37 1016.31 1016.00 1015.47 1013.91 1013.27 1012.57 1011.64 1010.09 1009.15 1008.91 1008.64 1007.54 1006.75 1006.60 1007.14 1007.68 1007.58 1007.27 1006.94 1006.45 1005.92 1005.80 1005.72 1005.80 1006.06 1006.17
1019.50 1019.80 1019.92 1020.26 1020.33 1020.26 1020.13 1020.30 1020.27 1020.09 1019.67 1019.61 1019.04 1018.53 1018.11 1016.75 1014.83 1015.35 1016.32 1016.14 1015.77 1015.06 1013.72 1012.93 1012.21 1011.27 1010.06 1008.88 1008.57 1009.26 1008.24 1007.87 1008.08 1008.09 1008.39 1008.23 1007.96 1007.38 1007.10 1006.46 1006.43 1006.37 1006.35 1006.49 1006.39
1019.11 1019.66 1019.58 1019.75 1019.97 1020.16 1020.20 1020.24 1020.13 1020.06 1019.88 1019.53 1019.21 1018.55 1017.57 1015.73 1014.12 1015.62 1016.13 1015.77 1015.04 1014.32 1013.68 1013.06 1012.23 1011.67 1010.49 1009.85 1009.79 1009.32 1008.80 1008.56 1008.69 1008.82 1008.72 1008.49 1007.94 1007.40 1006.80 1006.64 1006.57 1006.43 1006.41 1006.31 1006.13
1018.60 1019.07 1019.42 1019.66 1019.84 1019.66 1019.83 1020.26 1019.92 1020.09 1019.78 1019.60 1019.31 1018.68 1017.25 1015.12 1014.67 1015.20 1015.27 1015.01 1014.59 1014.07 1013.81 1013.49 1012.93 1012.79 1011.84 1011.12 1010.69 1009.76 1009.70 1009.14 1008.72 1008.41 1008.15 1008.01 1007.49 1007.20 1006.38 1006.23 1006.37 1006.48 1006.12 1005.79 1005.74
1018.13 1018.66 1018.79 1019.45 1019.75 1019.65 1019.53 1019.80 1019.84 1019.88 1019.63 1019.47 1019.37 1018.30 1016.38 1014.65 1014.58 1014.73 1015.20 1014.63 1014.73 1014.42 1013.88 1014.09 1013.76 1013.15 1012.26 1011.05 1010.78 1010.78 1009.91 1008.64 1007.39 1007.61 1007.89 1007.78 1006.97 1005.18 1005.45 1006.19 1006.22 1006.01 1005.66 1005.47 1005.41
1017.43 1017.93 1018.50 1018.95 1019.58 1019.87 1019.65 1019.69 1019.75 1019.48 1019.53 1019.35 1019.07 1018.05 1015.03 1014.80 1014.64 1014.76 1014.40 1014.48 1014.62 1014.54 1014.35 1014.31 1014.17 1013.49 1012.75 1011.83 1011.03 1010.10 1009.15 1007.73 1007.08 1007.72 1007.59 1008.04 1006.26 1005.71 1005.64 1006.05 1006.13 1006.18 1005.63 1005.43 1005.45
1016.88 1017.48 1017.96 1018.78 1019.51 1019.72 1019.93 1019.57 1019.35 1019.26 1019.01 1019.21 1018.42 1017.09 1014.35 1015.48 1014.90 1014.30 1014.21 1014.03 1014.21 1014.36 1014.26 1014.35 1013.98 1013.01 1012.35 1011.66 1009.90 1008.40 1007.74 1006.98 1006.74 1007.06 1007.88 1007.81 1006.34 1006.31 1006.25 1005.84 1005.67 1005.77 1005.64 1005.53 1005.56
1016.15 1016.97 1017.65 1018.39 1019.18 1019.52 1019.95 1019.95 1019.29 1019.00 1018.54 1018.09 1017.01 1016.46 1014.71 1014.02 1014.18 1014.37 1014.46 1014.52 1013.98 1013.91 1013.81 1013.73 1012.85 1012.21 1011.09 1010.36 1008.95 1008.65 1008.15 1007.71 1007.16 1006.98 1007.17 1007.03 1006.22 1006.17 1006.00 1005.59 1005.72 1005.76 1005.77 1006.03 1006.13
1015.48 1016.59 1017.22 1017.95 1018.84 1019.35 1019.87 1019.94 1019.32 1018.15 1016.83 1014.85 1014.22 1013.65 1013.35 1013.87 1014.64 1014.16 1014.18 1014.11 1013.83 1013.55 1012.66 1012.29 1011.99 1010.34 1009.99 1010.49 1010.71 1010.50 1009.59 1008.64 1007.97 1007.71 1008.00 1007.16 1006.00 1005.87 1005.58 1005.64 1006.64 1007.50 1008.20 1008.66 1009.00
1015.04 1015.55 1017.00 1017.48 1018.55 1019.24 1019.52 1018.16 1016.76 1016.93 1015.54 1014.89 1014.49 1014.14 1013.71 1013.55 1013.67 1013.56 1014.16 1013.71 1013.13 1012.34 1012.22 1012.32 1011.07 1010.95 1011.74 1011.70 1011.43 1010.71 1009.67 1008.90 1008.38 1008.66 1008.35 1007.38 1006.05 1005.51 1005.33 1007.57 1009.01 1009.80 1010.44 1010.77 1010.85
1014.46 1015.05 1016.05 1017.25 1018.02 1019.56 1018.51 1017.29 1017.03 1017.08 1015.98 1014.27 1014.06 1013.38 1013.72 1013.90 1012.61 1012.68 1013.43 1012.90 1012.59 1012.05 1011.89 1011.52 1010.93 1012.10 1012.17 1011.64 1011.27 1010.46 1009.70 1009.41 1009.45 1009.13 1008.46 1007.08 1006.17 1004.93 1005.96 1008.96 1010.46 1011.10 1012.06 1012.58 1012.77
1013.46 1014.63 1015.63 1017.12 1018.17 1018.59 1018.22 1017.70 1018.01 1018.04 1016.50 1013.64 1013.25 1012.81 1013.27 1013.02 1012.43 1012.34 1012.87 1012.92 1012.61 1012.06 1012.09 1012.06 1012.13 1012.41 1012.22 1011.72 1011.52 1010.60 1010.15 1010.33 1009.96 1009.42 1008.00 1007.75 1006.13 1006.81 1007.67 1009.73 1012.15 1012.90 1013.50 1013.92 1013.76
1012.44 1013.84 1014.42 1015.13 1015.62 1016.95 1017.10 1017.94 1018.60 1019.20 1015.29 1011.71 1011.62 1011.47 1012.43 1012.49 1011.67 1012.50 1012.97 1012.94 1012.09 1011.84 1012.76 1011.65 1012.34 1012.52 1012.62 1012.08 1012.06 1011.09 1010.97 1010.47 1009.89 1009.15 1008.25 1007.54 1007.38 1006.78 1009.62 1010.99 1012.35 1014.64 1015.92 1015.95 1015.43
1011.13 1012.69 1014.11 1015.66 1015.61 1015.35 1016.84 1018.10 1019.16 1019.04 1014.15 1011.66 1011.29 1011.38 1012.07 1011.89 1011.76 1012.23 1012.60 1012.97 1012.51 1012.32 1012.26 1011.96 1012.34 1012.64 1012.07 1012.24 1011.93 1011.57 1011.02 1009.68 1008.85 1008.51 1007.45 1006.45 1007.56 1009.09 1011.83 1013.35 1014.45 1015.97 1017.10 1017.17 1016.58
1009.72 1011.41 1012.62 1013.69 1014.80 1015.49 1017.04 1018.67 1018.11 1016.58 1010.79 1010.81 1010.13 1010.29 1010.81 1011.22 1011.56 1012.02 1012.07 1011.96 1011.59 1011.65 1011.55 1011.43 1011.88 1012.44 1012.87 1011.89 1011.23 1011.16 1010.17 1008.34 1007.79 1007.52 1006.04 1006.54 1007.79 1011.95 1013.36 1014.55 1016.05 1016.91 1017.36 1017.69 1017.49
1008.98 1011.37 1012.81 1013.09 1014.35 1015.48 1016.59 1017.69 1015.39 1012.79 1010.55 1009.29 1008.70 1009.85 1010.10 1010.55 1011.49 1011.82 1011.83 1011.73 1012.04 1011.76 1011.06 1010.63 1011.60 1011.97 1012.35 1012.34 1011.57 1011.37 1010.90 1009.89 1009.03 1007.87 1007.26 1007.94 1008.68 1013.06 1014.78 1015.69 1016.88 1017.84 1018.30 1018.65 1017.98
1009.54 1011.93 1012.53 1014.42 1014.23 1015.39 1015.85 1015.92 1012.05 1010.74 1009.55 1008.81 1009.06 1009.37 1009.66 1010.62 1011.31 1011.69 1011.90 1011.59 1011.70 1012.41 1012.03 1011.62 1011.45 1012.11 1012.38 1012.24 1012.00 1011.78 1011.24 1011.06 1010.91 1009.72 1009.05 1008.45 1010.52 1012.25 1015.16 1016.38 1017.55 1018.44 1019.14 1019.24 1018.83
1008.58 1010.92 1013.75 1013.73 1014.55 1015.16 1015.70 1013.14 1011.49 1009.86 1008.99 1008.57 1007.53 1008.50 1009.01 1010.16 1011.44 1011.88 1012.10 1011.71 1012.54 1013.13 1013.52 1012.85 1012.11 1012.09 1012.34 1012.38 1011.96 1011.73 1011.67 1011.30 1011.59 1010.86 1010.14 1009.65 1013.02 1015.73 1016.97 1017.87 1018.70 1019.60 1020.17 1019.94 1019.42
1008.42 1011.64 1013.35 1014.33 1015.30 1015.35 1013.58 1011.80 1009.43 1009.28 1008.16 1008.24 1007.04 1007.50 1008.52 1009.85 1010.77 1011.92 1011.86 1012.61 1012.85 1013.63 1013.93 1013.31 1013.14 1012.41 1012.41 1011.88 1010.96 1010.95 1011.83 1012.48 1012.47 1012.27 1011.85 1012.39 1015.98 1018.71 1019.33 1019.94 1020.32 1020.77 1021.00 1020.94 1020.48
1008.64 1011.19 1013.44 1014.25 1014.75 1013.80 1011.87 1009.78 1008.97 1008.40 1008.19 1007.80 1007.59 1007.74 1008.19 1009.47 1010.56 1011.38 1011.77 1012.24 1013.31 1013.79 1013.86 1013.89 1013.29 1012.22 1011.42 1012.08 1012.14 1012.33 1013.07 1013.49 1014.00 1012.88 1013.34 1013.97 1017.80 1019.61 1020.42 1020.97 1021.29 1021.54 1021.44 1021.38 1021.40
1009.70 1011.85 1013.90 1013.61 1012.25 1011.93 1010.83 1009.56 1009.04 1008.30 1008.32 1008.14 1007.90 1008.29 1008.64 1009.56 1010.66 1011.30 1012.00 1013.02 1014.11 1014.26 1014.19 1014.17 1013.59 1012.49 1012.11 1012.56 1012.63 1012.86 1013.99 1014.43 1014.93 1015.45 1014.74 1015.90 1018.36 1019.91 1020.88 1021.47 1021.69 1021.84 1021.83 1021.81 1021.62
1008.92 1011.04 1012.77 1012.92 1011.50 1011.03 1010.30 1009.51 1009.02 1009.03 1008.75 1008.42 1008.64 1008.80 1009.31 1009.81 1010.57 1011.43 1012.28 1014.04 1014.59 1014.83 1015.08 1014.93 1013.55 1013.17 1012.52 1013.15 1013.77 1013.95 1014.35 1015.08 1015.82 1016.07 1015.67 1017.19 1018.81 1019.94 1021.03 1021.60 1021.91 1022.09 1022.22 1022.17 1022.02
1006.94 1008.37 1009.17 1010.65 1010.70 1010.38 1009.92 1009.30 1008.43 1008.97 1008.79 1009.14 1009.33 1009.16 1009.50 1010.29 1010.86 1011.39 1012.64 1013.99 1014.81 1015.28 1015.21 1014.76 1013.30 1013.31 1013.13 1013.03 1013.82 1015.05 1015.54 1016.30 1017.17 1017.49 1017.06 1018.25 1019.32 1020.47 1021.17 1021.63 1021.69 1021.94 1022.05 1022.04 1021.91
1006.55 1007.00 1008.39 1009.07 1009.60 1009.53 1009.24 1008.50 1008.84 1008.98 1009.04 1009.47 1009.52 1009.70 1010.22 1010.46 1010.61 1011.23 1012.30 1013.11 1013.72 1014.87 1014.51 1014.30 1013.49 1013.41 1012.97 1013.12 1014.75 1015.92 1016.57 1017.00 1017.84 1018.37 1018.85 1018.88 1019.77 1020.59 1020.90 1020.99 1021.35 1021.55 1021.75 1021.83 1021.86
1006.83 1006.47 1007.26 1008.52 1009.18 1009.29 1008.46 1008.04 1008.90 1008.90 1009.65 1009.32 1009.56 1010.27 1010.98 1010.98 1011.24 1011.53 1012.10 1012.77 1013.15 1013.76 1013.84 1013.76 1013.37 1013.06 1012.55 1013.50 1015.82 1017.12 1017.93 1018.31 1018.93 1019.59 1019.41 1019.74 1020.76 1020.91 1020.63 1020.96 1021.48 1021.68 1021.70 1021.75 1021.76
Wind_Speed
10 9 7 6 4 3 3 4 7 8 10 12 13 15 16 17 19 9 2 9 10 14 13 11 8 5 7 11 7 10 12 14 17 15 12 6 8 9 11 12 11 12 11 14 19
12 11 9 7 6 4 4 5 7 7 9 12 14 14 16 16 11 4 6 7 9 12 11 7 5 6 9 8 5 9 12 17 14 10 12 12 14 17 16 18 17 15 12 13 10
13 12 10 9 7 6 5 6 6 8 9 12 13 14 14 14 9 6 5 7 10 14 8 8 9 11 13 9 11 12 16 16 14 12 9 15 18 19 20 20 18 17 17 17 19
13 13 11 10 8 7 6 6 8 9 10 11 11 14 15 9 4 8 3 5 10 13 7 7 7 12 10 11 5 10 16 12 15 13 12 17 19 21 22 23 21 18 17 19 19
14 13 12 12 11 8 7 7 7 9 11 12 12 12 10 7 1 10 4 8 9 5 5 6 7 7 11 8 9 16 17 11 11 12 16 18 20 21 22 21 18 16 13 17 16
16 15 13 13 12 10 7 9 7 8 9 12 13 14 8 10 5 5 1 3 3 4 4 6 4 6 10 9 8 10 13 16 17 17 17 18 18 16 17 17 14 16 16 16 14
19 17 16 13 13 11 8 8 9 9 9 9 12 10 8 2 5 6 4 1 1 3 4 2 5 8 8 9 5 10 16 18 20 6 10 13 17 19 2 3 13 16 16 17 17
22 20 17 15 13 10 8 7 10 11 11 10 8 11 6 3 4 7 6 6 2 2 3 3 5 8 7 8 12 13 14 14 8 4 9 6 15 16 11 13 15 19 22 22 22
22 20 18 15 11 8 7 7 10 11 9 9 8 7 6 6 9 5 5 4 1 4 2 4 6 9 6 11 12 14 9 7 14 6 6 10 16 13 19 21 18 17 18 17 19
24 22 19 16 13 8 5 9 2 7 7 8 6 6 8 13 9 5 5 4 5 4 7 7 7 9 12 9 10 14 13 12 16 13 16 20 23 19 19 19 16 15 14 18 21
26 24 22 18 14 10 5 5 4 5 11 8 2 3 11 9 8 10 7 7 7 8 11 8 9 13 11 8 9 10 14 15 14 14 12 19 25 20 19 10 21 20 21 23 25
26 27 24 22 16 12 8 7 6 6 6 11 6 5 3 12 9 10 7 8 7 10 3 8 14 9 4 5 7 11 15 14 13 3 16 20 26 23 9 22 20 22 22 25 25
28 27 27 23 17 6 12 11 9 10 7 9 12 12 14 13 12 13 12 4 9 10 10 10 7 2 6 8 10 12 13 13 15 15 17 18 19 14 15 21 22 23 23 22 24
29 29 29 24 11 7 6 11 6 7 1 10 11 10 11 10 9 7 5 5 7 8 3 7 7 2 8 10 7 11 6 11 13 14 12 15 17 16 15 18 20 23 25 25 24
32 32 34 28 13 12 6 4 6 2 1 16 17 15 18 14 15 12 6 6 10 6 5 5 5 5 6 5 3 7 10 15 17 15 17 16 11 3 16 22 26 24 22 24 23
37 37 34 6 6 9 12 14 4 3 8 13 13 18 20 16 12 11 10 6 3 5 9 11 1 5 5 5 9 10 13 18 18 6 9 12 8 7 13 20 22 22 21 22 22
40 39 28 13 9 14 15 9 9 7 16 17 17 24 21 14 13 12 12 12 9 8 11 9 9 5 5 7 6 7 12 9 6 8 10 11 9 10 16 19 19 21 21 23 22
41 37 16 8 13 15 12 6 8 10 19 10 22 22 16 17 13 12 10 9 4 6 4 8 8 11 7 3 7 8 7 7 8 10 15 19 2 8 16 17 18 21 21 21 23
39 10 14 8 13 11 15 8 10 11 12 17 21 23 13 17 8 12 12 12 6 1 5 5 5 5 4 4 5 4 4 6 7 14 13 13 12 6 22 21 22 23 23 22 23
13 14 7 13 13 10 8 7 8 12 13 20 15 19 17 20 12 8 15 7 9 3 3 3 5 6 4 7 11 9 7 4 3 6 9 4 7 10 20 21 22 18 20 21 22
13 8 6 11 9 8 9 12 18 12 17 24 12 12 15 19 14 11 15 7 9 8 5 2 5 9 5 8 2 5 3 4 8 9 9 8 6 6 12 15 17 18 15 17 19
6 7 11 13 8 7 12 13 6 18 14 6 8 8 15 18 15 13 12 8 9 7 5 4 4 5 2 7 1 4 4 5 4 9 8 12 5 7 10 11 14 17 15 15 15
7 6 8 9 9 13 12 11 11 19 15 11 8 7 15 16 9 10 12 10 10 8 6 6 5 4 8 8 11 2 3 9 9 11 14 7 5 7 10 12 14 14 16 16 15
7 8 4 4 5 17 18 16 15 13 5 6 7 11 16 15 6 14 14 9 10 5 6 2 6 5 3 2 3 4 4 8 9 8 4 5 3 8 8 10 10 13 14 14 14
3 6 9 11 10 20 16 16 20 14 8 9 8 13 15 11 10 11 14 12 8 7 7 6 6 5 5 4 6 1 2 6 5 10 6 3 4 9 6 7 7 5 11 14 16
4 10 10 18 16 17 17 19 20 11 13 13 11 14 12 10 5 16 13 13 8 12 10 6 5 4 4 3 12 5 2 2 3 4 5 2 7 9 3 7 12 14 13 15 16
3 9 9 14 16 12 14 21 20 14 2 9 14 13 10 9 3 12 7 7 8 11 9 7 4 4 4 8 10 5 3 3 5 7 6 6 6 9 6 7 11 14 16 17 17
Wind_Direction
221 227 235 243 235 259 295 318 329 339 330 333 334 337 334 336 311 232 274 4 327 321 310 269 245 256 232 248 243 261 267 259 269 284 296 315 295 286 296 291 281 278 290 296 312
217 220 233 240 245 253 278 303 317 326 329 330 330 334 332 332 289 264 58 340 318 307 290 313 279 290 257 247 233 234 256 268 317 323 323 311 298 295 303 290 286 280 282 292 307
218 223 227 237 232 247 269 292 303 315 324 323 327 331 330 311 267 92 42 346 317 292 287 294 282 277 268 242 254 254 253 287 310 324 313 299 291 295 294 290 292 300 309 303 298
214 220 221 233 233 231 249 279 297 307 319 314 326 325 323 266 317 87 26 325 297 287 281 288 262 265 271 268 220 272 266 272 296 301 292 283 294 288 287 286 293 294 298 296 288
206 210 213 217 220 231 255 261 284 305 311 314 320 322 292 230 244 121 244 209 259 306 340 320 292 311 273 326 298 258 267 295 295 282 277 282 278 283 283 288 297 294 280 282 278
202 198 204 217 223 213 231 270 283 293 302 311 312 310 253 254 102 140 168 226 333 295 344 334 347 338 282 283 271 340 291 283 279 274 271 277 284 275 270 283 296 300 289 289 285
200 196 192 206 220 216 221 255 273 284 289 291 304 293 253 307 163 163 181 60 340 330 308 332 318 289 351 276 345 282 285 281 262 293 280 332 276 249 105 243 295 291 298 301 296
201 192 190 194 210 220 230 252 282 281 275 270 279 279 277 150 198 214 178 167 199 271 294 309 300 289 264 315 262 255 266 269 101 252 303 279 289 293 355 313 294 289 296 298 299
200 191 183 187 197 201 237 267 275 274 244 231 233 225 239 128 208 163 238 248 235 216 248 270 260 280 231 249 270 207 286 285 309 223 287 273 300 296 307 294 298 294 290 297 300
192 187 180 173 177 181 219 270 144 176 192 218 256 228 181 202 154 189 174 240 236 223 227 231 239 253 220 241 293 330 310 300 299 310 313 307 295 305 301 300 312 301 327 341 337
190 184 175 166 168 166 162 219 224 207 215 251 217 279 130 118 174 207 186 214 222 232 253 175 264 246 358 347 317 296 285 290 292 314 310 303 300 309 311 304 29 10 3 350 343
193 178 171 161 170 177 218 250 7 358 254 219 228 239 205 179 177 183 192 228 206 255 174 229 240 55 336 289 282 281 283 284 304 256 314 305 301 303 317 51 26 11 1 347 336
191 176 162 153 144 177 209 210 359 336 260 188 215 207 180 198 204 173 204 217 240 246 243 267 9 68 271 278 272 271 283 302 309 311 289 281 289 303 73 48 15 10 356 345 343
185 170 153 136 122 180 221 243 336 329 285 199 192 221 181 214 203 144 209 268 208 273 288 283 67 260 280 279 284 285 343 303 295 300 294 316 293 282 11 5 9 3 356 340 349
178 164 152 150 144 179 173 142 71 143 193 157 158 134 166 195 119 181 165 197 256 198 224 107 215 245 254 268 286 291 318 292 293 281 284 276 246 108 18 355 357 3 349 343 340
174 163 153 155 149 144 126 103 140 143 240 179 155 181 177 204 196 134 184 219 348 239 230 268 337 256 250 278 262 295 286 270 258 291 247 225 234 48 16 353 356 356 352 348 342
163 160 158 159 164 140 130 141 104 236 150 173 179 169 181 179 179 187 183 188 223 206 210 177 194 164 247 286 206 241 286 291 234 209 254 14 311 42 13 15 9 355 355 352 351
155 153 154 140 129 140 140 175 164 229 235 161 155 169 183 167 185 198 192 178 181 236 270 216 179 194 154 218 322 305 311 314 310 309 323 307 124 84 28 21 15 4 1 352 356
140 142 139 164 128 162 138 195 179 215 183 165 156 173 175 163 165 182 217 219 132 217 262 225 220 134 199 247 246 194 247 349 283 264 260 261 83 173 11 9 8 2 356 354 355
130 122 138 147 139 130 164 195 192 265 166 171 167 181 176 175 172 172 196 184 161 163 280 124 256 200 117 231 221 255 351 262 214 286 310 270 83 353 352 355 358 357 352 354 354
111 103 128 140 139 165 198 200 177 219 191 193 163 173 177 174 185 186 179 177 167 164 241 225 254 150 217 221 4 206 97 299 305 271 275 296 88 357 353 354 352 349 353 351 352
100 112 154 146 171 186 207 193 205 187 191 187 176 182 174 169 180 184 171 173 167 167 195 171 268 242 187 153 198 84 29 353 303 291 297 296 94 30 9 355 358 352 354 354 353
84 98 175 192 182 177 199 199 196 173 173 178 164 186 157 163 165 177 156 123 152 179 196 181 207 217 170 172 205 76 4 333 305 270 269 283 107 48 22 0 359 0 358 354 353
134 132 141 204 272 170 177 187 171 188 152 161 166 166 162 163 153 168 142 158 174 215 48 314 227 248 312 9 89 272 354 353 309 280 317 54 83 13 20 353 351 3 3 358 355
118 138 148 174 194 179 183 184 158 152 153 150 178 173 164 152 158 160 151 144 180 151 193 249 236 206 244 256 113 46 327 59 336 341 2 90 51 354 22 351 326 19 5 1 0
126 144 183 154 157 183 184 187 175 151 151 174 171 166 162 168 168 164 161 170 169 174 205 204 206 240 233 217 120 151 181 71 90 4 24 301 86 4 331 353 13 9 9 7 4
82 123 145 147 166 171 185 170 169 142 241 167 152 155 172 137 167 144 162 137 154 173 192 196 226 210 186 132 142 185 163 120 104 28 335 34 2 342 338 15 18 9 9 8 7